| time (UTC) | temp F | wind direction | speed knots | gust knots | rain 1hr in | rain 24hr in | rain mn in | humidity % | barometer mb |
| 20260505212003 | 64 | 287 | 0.0 | 2.6 | 0.00 | 0.00 | 0.00 | 74 | 1008.5 |
| 20260505211503 | 63 | 287 | 0.9 | 2.6 | 0.00 | 0.00 | 0.00 | 74 | 1008.5 |
| 20260505211003 | 63 | 248 | 0.0 | 1.7 | 0.00 | 0.00 | 0.00 | 73 | 1008.5 |
| 20260505210502 | 63 | 248 | 0.0 | 1.7 | 0.00 | 0.00 | 0.00 | 75 | 1008.7 |
| 20260505210003 | 63 | 311 | 0.9 | 1.7 | 0.00 | 0.00 | 0.00 | 72 | 1008.6 |
| 20260505205503 | 63 | 312 | 0.0 | 1.7 | 0.00 | 0.00 | 0.00 | 74 | 1008.6 |
| 20260505205003 | 63 | 313 | 0.0 | 1.7 | 0.00 | 0.00 | 0.00 | 73 | 1008.7 |
| 20260505204502 | 62 | 313 | 0.9 | 2.6 | 0.00 | 0.00 | 0.00 | 74 | 1008.8 |
| 20260505203002 | 62 | 70 | 0.0 | 1.7 | 0.00 | 0.00 | 0.00 | 73 | 1008.8 |
| 20260505202503 | 62 | 19 | 0.0 | 1.7 | 0.00 | 0.00 | 0.00 | 77 | 1008.8 |
| 20260505202003 | 62 | 272 | 0.0 | 0.9 | 0.00 | 0.00 | 0.00 | 74 | 1008.8 |
| 20260505201503 | 62 | 272 | 0.9 | 1.7 | 0.00 | 0.00 | 0.00 | 74 | 1008.9 |
| 20260505200503 | 62 | 175 | 0.0 | 1.7 | 0.00 | 0.00 | 0.00 | 75 | 1008.8 |
| 20260505200003 | 62 | 175 | 0.0 | 0.9 | 0.00 | 0.00 | 0.00 | 73 | 1008.8 |
| 20260505195503 | 62 | 175 | 0.0 | 0.9 | 0.00 | 0.00 | 0.00 | 74 | 1008.9 |
| 20260505195003 | 62 | 175 | 0.0 | 0.9 | 0.00 | 0.00 | 0.00 | 75 | 1008.9 |
| 20260505194502 | 61 | 175 | 0.0 | 1.7 | 0.00 | 0.00 | 0.00 | 73 | 1008.9 |
| 20260505194004 | 61 | 175 | 0.0 | 2.6 | 0.00 | 0.00 | 0.00 | 72 | 1009.0 |
| 20260505193503 | 61 | 235 | 0.0 | 1.7 | 0.00 | 0.00 | 0.00 | 76 | 1009.0 |
| 20260505193003 | 61 | 289 | 0.0 | 1.7 | 0.00 | 0.00 | 0.00 | 75 | 1009.0 |
| 20260505192503 | 61 | 296 | 0.0 | 2.6 | 0.00 | 0.00 | 0.00 | 76 | 1009.0 |
| 20260505192003 | 61 | 303 | 0.0 | 1.7 | 0.00 | 0.00 | 0.00 | 76 | 1009.0 |
| 20260505191003 | 60 | 276 | 0.9 | 1.7 | 0.00 | 0.00 | 0.00 | 77 | 1009.0 |
| 20260505190503 | 60 | 276 | 0.0 | 2.6 | 0.00 | 0.00 | 0.00 | 77 | 1009.0 |
| 20260505190004 | 60 | 274 | 0.0 | 1.7 | 0.00 | 0.00 | 0.00 | 76 | 1009.0 |
| 20260505185503 | 60 | 275 | 0.0 | 0.9 | 0.00 | 0.00 | 0.00 | 76 | 1009.0 |
| 20260505185003 | 60 | 275 | 0.0 | 1.7 | 0.00 | 0.00 | 0.00 | 76 | 1009.0 |
| 20260505184003 | 59 | 277 | 0.0 | 1.7 | 0.00 | 0.00 | 0.00 | 77 | 1009.0 |
| 20260505183503 | 59 | 284 | 0.0 | 1.7 | 0.00 | 0.00 | 0.00 | 77 | 1009.0 |
| 20260505183004 | 59 | 292 | 0.9 | 2.6 | 0.00 | 0.00 | 0.00 | 78 | 1009.0 |
| 20260505182503 | 59 | 83 | 0.0 | 0.9 | 0.00 | 0.00 | 0.00 | 77 | 1009.0 |
| 20260505182003 | 59 | 84 | 0.0 | 0.0 | 0.00 | 0.00 | 0.00 | 79 | 1009.0 |
| 20260505181504 | 59 | 84 | 0.0 | 0.0 | 0.00 | 0.00 | 0.00 | 78 | 1009.0 |
| 20260505181003 | 59 | 84 | 0.0 | 1.7 | 0.00 | 0.00 | 0.00 | 78 | 1008.9 |
| 20260505180504 | 59 | 84 | 0.0 | 1.7 | 0.00 | 0.00 | 0.00 | 79 | 1009.0 |
| 20260505180003 | 58 | 84 | 0.0 | 0.0 | 0.00 | 0.00 | 0.00 | 80 | 1008.9 |
| 20260505175503 | 58 | 84 | 0.0 | 0.9 | 0.00 | 0.00 | 0.00 | 79 | 1008.9 |
| 20260505175004 | 58 | 83 | 0.0 | 1.7 | 0.00 | 0.00 | 0.00 | 79 | 1008.9 |
| 20260505174503 | 58 | 84 | 0.0 | 0.9 | 0.00 | 0.00 | 0.00 | 79 | 1008.9 |
| 20260505174003 | 58 | 78 | 0.0 | 1.7 | 0.00 | 0.00 | 0.00 | 80 | 1008.9 |
| 20260505173003 | 58 | 100 | 0.0 | 0.9 | 0.00 | 0.00 | 0.00 | 80 | 1008.8 |
| 20260505172504 | 58 | 100 | 0.0 | 1.7 | 0.00 | 0.00 | 0.00 | 81 | 1008.8 |
| 20260505172004 | 58 | 100 | 0.0 | 1.7 | 0.00 | 0.00 | 0.00 | 80 | 1008.7 |
| 20260505171504 | 58 | 178 | 0.0 | 0.9 | 0.00 | 0.00 | 0.00 | 80 | 1008.7 |
| 20260505171004 | 58 | 178 | 0.0 | 0.9 | 0.00 | 0.00 | 0.00 | 80 | 1008.8 |
| 20260505170503 | 58 | 178 | 0.0 | 1.7 | 0.00 | 0.00 | 0.00 | 81 | 1008.7 |
| 20260505165503 | 57 | 178 | 0.0 | 0.9 | 0.00 | 0.00 | 0.00 | 82 | 1008.7 |
| 20260505165003 | 57 | 178 | 0.0 | 1.7 | 0.00 | 0.00 | 0.00 | 81 | 1008.6 |
| 20260505164504 | 57 | 178 | 0.0 | 1.7 | 0.00 | 0.00 | 0.00 | 81 | 1008.7 |
| 20260505164003 | 57 | 58 | 0.0 | 1.7 | 0.00 | 0.00 | 0.00 | 83 | 1008.6 |
| 20260505163503 | 57 | 348 | 0.0 | 0.9 | 0.00 | 0.00 | 0.00 | 82 | 1008.6 |
| 20260505162504 | 57 | 299 | 0.0 | 0.0 | 0.00 | 0.00 | 0.00 | 83 | 1008.5 |
| 20260505162004 | 56 | 338 | 0.0 | 1.7 | 0.00 | 0.00 | 0.00 | 83 | 1008.5 |
| 20260505161504 | 56 | 201 | 0.0 | 1.7 | 0.00 | 0.00 | 0.00 | 83 | 1008.4 |
| 20260505161004 | 56 | 211 | 0.0 | 1.7 | 0.00 | 0.00 | 0.00 | 83 | 1008.5 |
| 20260505152503 | 56 | 254 | 0.0 | 0.9 | 0.00 | 0.00 | 0.00 | 83 | 1008.4 |
| 20260505152002 | 56 | 254 | 0.0 | 0.0 | 0.00 | 0.00 | 0.00 | 84 | 1008.4 |
| 20260505151503 | 56 | 254 | 0.0 | 1.7 | 0.00 | 0.00 | 0.00 | 84 | 1008.4 |
| 20260505151003 | 56 | 254 | 0.0 | 1.7 | 0.00 | 0.00 | 0.00 | 84 | 1008.3 |
| 20260505150502 | 56 | 254 | 0.0 | 0.9 | 0.00 | 0.00 | 0.00 | 84 | 1008.2 |
| 20260505140504 | 55 | 292 | 0.0 | 1.7 | 0.00 | 0.00 | 0.00 | 84 | 1007.7 |
| 20260505125005 | 55 | 292 | 0.0 | 0.0 | 0.00 | 0.00 | 0.00 | 86 | 1007.3 |
| 20260505124503 | 55 | 292 | 0.0 | 0.0 | 0.00 | 0.00 | 0.00 | 86 | 1007.3 |
| 20260505124004 | 55 | 292 | 0.0 | 0.0 | 0.00 | 0.00 | 0.00 | 86 | 1007.2 |
| 20260505123004 | 55 | 292 | 0.0 | 0.0 | 0.00 | 0.00 | 0.00 | 86 | 1007.2 |
| 20260505122003 | 55 | 292 | 0.0 | 0.0 | 0.00 | 0.00 | 0.00 | 86 | 1007.2 |
| 20260505121504 | 55 | 292 | 0.0 | 0.0 | 0.00 | 0.00 | 0.00 | 86 | 1007.2 |
| 20260505121003 | 55 | 292 | 0.0 | 0.0 | 0.00 | 0.00 | 0.00 | 86 | 1007.2 |
| 20260505120504 | 55 | 292 | 0.0 | 0.0 | 0.00 | 0.00 | 0.00 | 86 | 1007.1 |
| 20260505115004 | 55 | 292 | 0.0 | 0.0 | 0.00 | 0.00 | 0.00 | 86 | 1007.1 |
| 20260505114504 | 55 | 292 | 0.0 | 0.0 | 0.00 | 0.00 | 0.00 | 86 | 1007.1 |
| 20260505114004 | 55 | 292 | 0.0 | 0.0 | 0.00 | 0.00 | 0.00 | 86 | 1007.1 |
| 20260505113505 | 55 | 292 | 0.0 | 0.0 | 0.00 | 0.00 | 0.00 | 86 | 1007.1 |
| 20260505113004 | 55 | 292 | 0.0 | 0.0 | 0.00 | 0.00 | 0.00 | 85 | 1007.0 |
| 20260505112504 | 55 | 291 | 0.0 | 0.0 | 0.00 | 0.00 | 0.00 | 85 | 1007.1 |
| 20260505112004 | 55 | 292 | 0.0 | 0.0 | 0.00 | 0.00 | 0.00 | 85 | 1007.1 |
| 20260505111503 | 55 | 292 | 0.0 | 0.0 | 0.00 | 0.00 | 0.00 | 85 | 1007.1 |
| 20260505111002 | 55 | 292 | 0.0 | 0.0 | 0.00 | 0.00 | 0.00 | 85 | 1007.1 |
| 20260505110502 | 55 | 292 | 0.0 | 0.0 | 0.00 | 0.00 | 0.00 | 85 | 1007.0 |
| 20260505102004 | 55 | 292 | 0.0 | 0.0 | 0.00 | 0.00 | 0.00 | 85 | 1006.7 |
| 20260505101002 | 55 | 292 | 0.0 | 0.0 | 0.00 | 0.00 | 0.00 | 85 | 1006.7 |
| 20260505100503 | 55 | 292 | 0.0 | 0.0 | 0.00 | 0.00 | 0.00 | 85 | 1006.7 |
| 20260505100002 | 55 | 292 | 0.0 | 1.7 | 0.00 | 0.00 | 0.00 | 85 | 1006.6 |
| 20260505095502 | 55 | 292 | 0.0 | 1.7 | 0.00 | 0.00 | 0.00 | 85 | 1006.7 |
| 20260505094502 | 55 | 292 | 0.0 | 0.9 | 0.00 | 0.00 | 0.00 | 84 | 1006.5 |
| 20260505094002 | 55 | 292 | 0.0 | 1.7 | 0.00 | 0.00 | 0.00 | 85 | 1006.6 |
| 20260505093504 | 55 | 292 | 0.0 | 0.9 | 0.00 | 0.00 | 0.00 | 85 | 1006.6 |
| 20260505093003 | 55 | 292 | 0.0 | 0.0 | 0.00 | 0.00 | 0.00 | 84 | 1006.5 |
| 20260505092503 | 55 | 292 | 0.0 | 1.7 | 0.00 | 0.00 | 0.00 | 84 | 1006.5 |
| 20260505092004 | 55 | 292 | 0.0 | 0.9 | 0.00 | 0.00 | 0.00 | 84 | 1006.5 |
| 20260505091502 | 55 | 292 | 0.0 | 0.9 | 0.00 | 0.00 | 0.00 | 83 | 1006.4 |
| 20260505090503 | 55 | 290 | 0.0 | 0.0 | 0.00 | 0.00 | 0.00 | 83 | 1006.3 |
| 20260505085004 | 56 | 292 | 0.0 | 0.0 | 0.00 | 0.00 | 0.00 | 83 | 1006.2 |
| 20260505084503 | 56 | 292 | 0.0 | 0.0 | 0.00 | 0.00 | 0.00 | 82 | 1006.2 |
| 20260505083503 | 56 | 292 | 0.9 | 2.6 | 0.00 | 0.00 | 0.00 | 82 | 1006.2 |
| 20260505083003 | 56 | 314 | 0.0 | 2.6 | 0.00 | 0.00 | 0.00 | 82 | 1006.1 |
| 20260505082503 | 56 | 315 | 0.0 | 1.7 | 0.00 | 0.00 | 0.00 | 83 | 1006.1 |
| 20260505082003 | 56 | 315 | 0.9 | 2.6 | 0.00 | 0.00 | 0.00 | 82 | 1006.1 |
| 20260505081004 | 56 | 316 | 0.0 | 0.9 | 0.00 | 0.00 | 0.00 | 82 | 1006.1 |
| 20260505080503 | 56 | 316 | 0.0 | 0.0 | 0.00 | 0.00 | 0.00 | 82 | 1006.0 |
| 20260505075004 | 56 | 316 | 0.0 | 1.7 | 0.00 | 0.00 | 0.00 | 81 | 1006.0 |
| 20260505074504 | 56 | 316 | 0.0 | 1.7 | 0.00 | 0.00 | 0.00 | 80 | 1006.0 |
| 20260505074004 | 56 | 316 | 0.0 | 1.7 | 0.00 | 0.00 | 0.00 | 80 | 1005.8 |
| 20260505073504 | 56 | 316 | 0.0 | 0.0 | 0.00 | 0.00 | 0.00 | 80 | 1005.8 |
| 20260505073004 | 57 | 316 | 0.0 | 1.7 | 0.00 | 0.00 | 0.00 | 79 | 1005.6 |
| 20260505072004 | 57 | 316 | 0.0 | 1.7 | 0.00 | 0.00 | 0.00 | 78 | 1005.5 |
| 20260505071503 | 57 | 316 | 0.0 | 1.7 | 0.00 | 0.00 | 0.00 | 78 | 1005.5 |
| 20260505071004 | 58 | 316 | 0.0 | 1.7 | 0.00 | 0.00 | 0.00 | 78 | 1005.4 |
| 20260505070503 | 58 | 316 | 0.0 | 0.9 | 0.00 | 0.00 | 0.00 | 77 | 1005.4 |
| 20260505070004 | 58 | 316 | 0.0 | 0.9 | 0.00 | 0.00 | 0.00 | 77 | 1005.4 |
| 20260505065504 | 58 | 316 | 0.0 | 1.7 | 0.00 | 0.00 | 0.00 | 76 | 1005.2 |
| 20260505065003 | 59 | 316 | 0.0 | 1.7 | 0.00 | 0.00 | 0.00 | 76 | 1005.2 |
| 20260505064504 | 59 | 316 | 0.0 | 0.0 | 0.00 | 0.00 | 0.00 | 76 | 1005.0 |
| 20260505064004 | 59 | 316 | 0.0 | 1.7 | 0.00 | 0.00 | 0.00 | 75 | 1005.0 |
| 20260505063502 | 59 | 316 | 0.0 | 1.7 | 0.00 | 0.00 | 0.00 | 75 | 1005.0 |
| 20260505063002 | 60 | 316 | 0.0 | 0.0 | 0.00 | 0.00 | 0.00 | 74 | 1004.9 |
| 20260505062502 | 60 | 316 | 0.0 | 1.7 | 0.00 | 0.00 | 0.00 | 74 | 1004.9 |
| 20260505062003 | 60 | 312 | 0.9 | 2.6 | 0.00 | 0.00 | 0.00 | 74 | 1004.8 |
| 20260505061502 | 60 | 302 | 1.7 | 4.3 | 0.00 | 0.00 | 0.00 | 73 | 1004.7 |
| 20260505061002 | 61 | 300 | 1.7 | 2.6 | 0.00 | 0.00 | 0.00 | 73 | 1004.6 |
| 20260505060502 | 61 | 279 | 0.0 | 1.7 | 0.00 | 0.00 | 0.00 | 72 | 1004.5 |
| 20260505060002 | 61 | 279 | 0.9 | 2.6 | 0.00 | 0.00 | 0.00 | 72 | 1004.5 |
| 20260505055003 | 62 | 292 | 1.7 | 4.3 | 0.00 | 0.00 | 0.00 | 71 | 1004.4 |
| 20260505054502 | 62 | 289 | 0.9 | 1.7 | 0.00 | 0.00 | 0.00 | 70 | 1004.4 |
| 20260505054003 | 63 | 289 | 0.9 | 2.6 | 0.00 | 0.00 | 0.00 | 70 | 1004.4 |
| 20260505053502 | 63 | 288 | 0.0 | 0.0 | 0.00 | 0.00 | 0.00 | 69 | 1004.4 |
| 20260505052503 | 64 | 275 | 0.9 | 2.6 | 0.00 | 0.00 | 0.00 | 68 | 1004.4 |
| 20260505052002 | 64 | 271 | 0.9 | 4.3 | 0.00 | 0.00 | 0.00 | 68 | 1004.3 |
| 20260505051503 | 65 | 253 | 0.0 | 1.7 | 0.00 | 0.00 | 0.00 | 67 | 1004.2 |
| 20260505051003 | 65 | 311 | 0.9 | 2.6 | 0.00 | 0.00 | 0.00 | 67 | 1004.2 |
| 20260505050503 | 65 | 286 | 0.9 | 2.6 | 0.00 | 0.00 | 0.00 | 67 | 1004.1 |
| 20260505041503 | 67 | 264 | 0.0 | 1.7 | 0.00 | 0.00 | 0.00 | 65 | 1003.5 |
| 20260505041003 | 67 | 264 | 0.0 | 1.7 | 0.00 | 0.00 | 0.00 | 65 | 1003.4 |
| 20260505040503 | 68 | 262 | 0.9 | 2.6 | 0.00 | 0.00 | 0.00 | 65 | 1003.3 |
| 20260505040004 | 68 | 262 | 0.0 | 2.6 | 0.00 | 0.00 | 0.00 | 68 | 1003.2 |
| 20260505035504 | 68 | 262 | 0.0 | 1.7 | 0.00 | 0.00 | 0.00 | 68 | 1003.1 |
| 20260505035003 | 69 | 262 | 0.0 | 0.0 | 0.00 | 0.00 | 0.00 | 69 | 1003.1 |
| 20260505034503 | 69 | 262 | 0.0 | 0.9 | 0.00 | 0.00 | 0.00 | 69 | 1003.0 |
| 20260505034003 | 69 | 262 | 0.0 | 0.0 | 0.00 | 0.00 | 0.00 | 69 | 1002.9 |
| 20260505033504 | 69 | 262 | 0.0 | 0.0 | 0.00 | 0.00 | 0.00 | 68 | 1002.8 |
| 20260505033003 | 70 | 262 | 0.0 | 0.0 | 0.00 | 0.00 | 0.00 | 67 | 1002.7 |
| 20260505032003 | 70 | 262 | 0.0 | 0.0 | 0.00 | 0.00 | 0.00 | 66 | 1002.5 |
| 20260505030504 | 71 | 262 | 0.0 | 0.0 | 0.00 | 0.00 | 0.00 | 66 | 1002.2 |
| 20260505030003 | 71 | 262 | 0.0 | 0.0 | 0.00 | 0.00 | 0.00 | 65 | 1002.2 |
| 20260505025504 | 71 | 262 | 0.0 | 1.7 | 0.00 | 0.00 | 0.00 | 65 | 1002.2 |
| 20260505025004 | 71 | 261 | 0.9 | 1.7 | 0.00 | 0.00 | 0.00 | 65 | 1002.1 |
| 20260505024503 | 72 | 262 | 0.0 | 0.9 | 0.00 | 0.00 | 0.00 | 64 | 1002.1 |
| 20260505024003 | 72 | 262 | 0.0 | 1.7 | 0.00 | 0.00 | 0.00 | 64 | 1002.0 |
| 20260505023504 | 72 | 262 | 0.0 | 0.9 | 0.00 | 0.00 | 0.00 | 63 | 1002.0 |
| 20260505023003 | 72 | 262 | 0.9 | 2.6 | 0.00 | 0.00 | 0.00 | 63 | 1002.0 |
| 20260505022504 | 72 | 256 | 0.0 | 2.6 | 0.00 | 0.00 | 0.00 | 62 | 1002.0 |
| 20260505022004 | 72 | 219 | 0.0 | 2.6 | 0.00 | 0.00 | 0.00 | 62 | 1002.0 |
| 20260505021504 | 72 | 240 | 0.0 | 1.7 | 0.00 | 0.00 | 0.00 | 62 | 1002.0 |
| 20260505021004 | 72 | 239 | 0.9 | 2.6 | 0.00 | 0.00 | 0.00 | 62 | 1002.0 |
| 20260505020503 | 73 | 291 | 0.0 | 1.7 | 0.00 | 0.00 | 0.00 | 62 | 1002.0 |
| 20260505015003 | 73 | 195 | 0.0 | 1.7 | 0.00 | 0.00 | 0.00 | 60 | 1002.0 |
| 20260505014503 | 73 | 220 | 0.9 | 2.6 | 0.00 | 0.00 | 0.00 | 60 | 1002.0 |
| 20260505014002 | 73 | 219 | 0.9 | 1.7 | 0.00 | 0.00 | 0.00 | 60 | 1002.1 |
| 20260505013503 | 73 | 194 | 0.0 | 1.7 | 0.00 | 0.00 | 0.00 | 60 | 1002.1 |
| 20260505012502 | 73 | 336 | 0.0 | 1.7 | 0.00 | 0.00 | 0.00 | 60 | 1002.2 |
| 20260505012003 | 73 | 234 | 0.9 | 1.7 | 0.00 | 0.00 | 0.00 | 60 | 1002.2 |
| 20260505011003 | 74 | 200 | 0.9 | 2.6 | 0.00 | 0.00 | 0.00 | 58 | 1002.3 |
| 20260505010502 | 74 | 257 | 0.0 | 2.6 | 0.00 | 0.00 | 0.00 | 59 | 1002.3 |
| 20260505010004 | 74 | 190 | 0.0 | 1.7 | 0.00 | 0.00 | 0.00 | 58 | 1002.3 |
| 20260505005503 | 74 | 188 | 0.9 | 2.6 | 0.00 | 0.00 | 0.00 | 58 | 1002.4 |
| 20260505005004 | 74 | 272 | 0.9 | 2.6 | 0.00 | 0.00 | 0.00 | 58 | 1002.3 |
| 20260505004503 | 74 | 229 | 0.9 | 1.7 | 0.00 | 0.00 | 0.00 | 58 | 1002.4 |
| 20260505004003 | 74 | 229 | 0.0 | 1.7 | 0.00 | 0.00 | 0.00 | 58 | 1002.4 |
| 20260505003004 | 73 | 337 | 0.0 | 2.6 | 0.00 | 0.00 | 0.00 | 57 | 1002.5 |
| 20260505002503 | 74 | 300 | 1.7 | 4.3 | 0.00 | 0.00 | 0.00 | 58 | 1002.6 |
| 20260505002003 | 73 | 234 | 0.0 | 1.7 | 0.00 | 0.00 | 0.00 | 57 | 1002.5 |
| 20260505001504 | 73 | 209 | 0.0 | 1.7 | 0.00 | 0.00 | 0.00 | 57 | 1002.6 |
| 20260505001004 | 73 | 301 | 0.0 | 2.6 | 0.00 | 0.00 | 0.00 | 58 | 1002.6 |
| 20260505000502 | 73 | 282 | 0.9 | 2.6 | 0.00 | 0.00 | 0.00 | 57 | 1002.7 |
| 20260505000003 | 73 | 293 | 0.9 | 4.3 | 0.00 | 0.00 | 0.00 | 58 | 1002.7 |
| 20260504234503 | 73 | 199 | 0.0 | 2.6 | 0.00 | 0.00 | 0.00 | 59 | 1002.8 |
| 20260504234004 | 73 | 202 | 0.0 | 2.6 | 0.00 | 0.00 | 0.00 | 58 | 1002.8 |
| 20260504233503 | 73 | 292 | 0.9 | 2.6 | 0.00 | 0.00 | 0.00 | 59 | 1002.8 |
| 20260504233004 | 73 | 126 | 0.0 | 1.7 | 0.00 | 0.00 | 0.00 | 59 | 1002.8 |
| 20260504232503 | 73 | 165 | 0.9 | 2.6 | 0.00 | 0.00 | 0.00 | 59 | 1002.8 |
| 20260504232003 | 73 | 180 | 0.9 | 2.6 | 0.00 | 0.00 | 0.00 | 59 | 1002.9 |
| 20260504231504 | 72 | 338 | 0.0 | 2.6 | 0.00 | 0.00 | 0.00 | 59 | 1002.9 |
| 20260504231004 | 72 | 217 | 0.9 | 2.6 | 0.00 | 0.00 | 0.00 | 59 | 1002.9 |
| 20260504230503 | 72 | 170 | 0.0 | 5.2 | 0.00 | 0.00 | 0.00 | 59 | 1002.9 |
| 20260504225003 | 72 | 174 | 0.0 | 1.7 | 0.00 | 0.00 | 0.00 | 58 | 1003.2 |
| 20260504224504 | 72 | 219 | 0.9 | 2.6 | 0.00 | 0.00 | 0.00 | 60 | 1003.3 |
| 20260504224004 | 72 | 177 | 0.0 | 2.6 | 0.00 | 0.00 | 0.00 | 59 | 1003.2 |
| 20260504223503 | 72 | 203 | 0.0 | 4.3 | 0.00 | 0.00 | 0.00 | 58 | 1003.4 |
| 20260504222503 | 71 | 292 | 0.0 | 1.7 | 0.00 | 0.00 | 0.00 | 60 | 1003.5 |
| 20260504222004 | 71 | 281 | 0.9 | 2.6 | 0.00 | 0.00 | 0.00 | 59 | 1003.6 |
| 20260504221503 | 71 | 292 | 0.0 | 2.6 | 0.00 | 0.00 | 0.00 | 60 | 1003.6 |
| 20260504221003 | 71 | 169 | 0.9 | 2.6 | 0.00 | 0.00 | 0.00 | 59 | 1003.7 |
| 20260504220503 | 71 | 74 | 0.9 | 2.6 | 0.00 | 0.00 | 0.00 | 59 | 1003.7 |
| 20260504220004 | 71 | 188 | 0.0 | 2.6 | 0.00 | 0.00 | 0.00 | 61 | 1003.8 |
| 20260504215504 | 71 | 280 | 0.0 | 1.7 | 0.00 | 0.00 | 0.00 | 61 | 1003.8 |
| 20260504215004 | 71 | 318 | 0.9 | 1.7 | 0.00 | 0.00 | 0.00 | 60 | 1003.8 |
| 20260504214503 | 70 | 65 | 0.0 | 1.7 | 0.00 | 0.00 | 0.00 | 63 | 1003.8 |
| 20260504214003 | 70 | 67 | 0.9 | 1.7 | 0.00 | 0.00 | 0.00 | 63 | 1003.9 |
| 20260504213503 | 70 | 85 | 0.9 | 2.6 | 0.00 | 0.00 | 0.00 | 63 | 1004.1 |
| 20260504212502 | 69 | 284 | 0.9 | 5.2 | 0.00 | 0.00 | 0.00 | 62 | 1004.2 |